"Pseudo-MPEC" for P10OvCS

Created 2019 Jun 15 19:09:25 UT using Find_Orb

Click here for an explanation of pseudo-MPECs

 
 Astrometry: 
     P10OvCS  C2019 06 01TLk.ClndyZj:bG?$nbB=k-Z86jOQg^X2l!XaeWu/7jq^bjV,8MxFF51
     P10OvCS  C2019 06 01-6\R?hs#F+J!=1gN`vePHIl8eHyWvw#]g:5,\b0\G4]dy$8_U#j#F51
     P10OvCS  C2019 06 01\ok_nI[E2t.?0p)l=*\.uU=Ry@Y\6$A^'V*bN665G-rm%iQa_:6;F51
     P10OvCS  C2019 06 01Wi:xHPhKL.'0p0'`Fp--iU2X,NFd3XS'VUXx6]$D?5nOpTOf]UKoF51
     P10OvCS  C2019 06 03.01975 20 52 57.79 +01 51 12.5    ~631q 21.4 VVNEOCP033
     P10OvCS  C2019 06 03.02332 20 52 57.72 +01 51 14.0    ~631q 21.3 VVNEOCP033
     P10OvCS  C2019 06 03.02691 20 52 57.71 +01 51 15.0    ~631q 20.9 VVNEOCP033
     P10OvCS KC2019 06 03hWw`XbM6oTF%fx;J9ikara;GN1*]\T%nQem8cGh3n]7pvZ],WRT_H21
     P10OvCS KC2019 06 03d8CFHxhNkZD.[`PoT3Astrometry`%/uuF'Ry[8=N5qt7@LYnrn9H21
     P10OvCS KC2019 06 03OSWxbj_ATZaHSw:J%redacted;OByAbT0xHIXx#5P?Z5`hIh1JvbH21
     P10OvCS  C2019 06 03eFgnh@i*D;xFWxuFO:ZHhVkS[goFg\n0V^:W\//((@[WA0r!NLJpF52
     P10OvCS  C2019 06 03];I\IT2YeJNv,7+i?JQG4IHOr3fg\*I!M/i,t94pLVCE\mv)[y+wF52
     P10OvCS  C2019 06 03)X0oEmTIHVvWE(,9=9CX\Bn)?Qd];!;Lq`sK/A[+R[h8t_;g(MIJF52
     P10OvCS  C2019 06 03v,CMJ0e=K74f09u+O[80IP*bEKDMtHIZlv*.-o%2anxqaNW6/oF2F52
     P10OvCS KC2019 06 04y*NEUrL)@ucfKGN2qTEXHw)cK`4/c_N.:ZxA/;aZ=6m4DllFiu/;711
     P10OvCS KC2019 06 046/)yd*bIclick2J=3^;Tm1;(N+ObOA.u0]_%Mn/MXmi[%:y8xnFF711
     P10OvCS KC2019 06 04%(-GWoQxW.;ehh4QoFD_(IS'QubQU$Yb62Whi]Q^#?'7pv]:5e=h711
     P10OvCS pC2019 06 06FYtBvKQT_9ZO%kI)o-,h4C^eZRFIiF)cBYhs3'gnWl9O;Bx#Nf7KL01
     P10OvCS KC2019 06 06JV`VW`%,bcOA+HU35#D\sw_qg]lmaHS=YmBYyhere_BN(Q5;@8_/L01
     P10OvCS KC2019 06 062TH).5fT\'#iD\\@\%8d`@ou56hNlw`Ei/4/cqj@:hWw/s3hew(`711
     P10OvCS KC2019 06 06mXu]F$)wd*B.m0q0[bQvP.s9[,(F]d`*B\Ah:K?$U;fL^2-F=]PK711
     P10OvCS KC2019 06 06Vj`LaT6G^Y]!wQuV`6BN$laWqrGX4Mshc@'v$-R!8MWR=TnZZv^a711
     P10OvCS KC2019 06 07BEn=?L,lEN/?U,C8yT?0`\d.py+T`'TXuKQ!1C`,@ol=2*p@I['`691
     P10OvCS KC2019 06 07yiVxte8?JwD!yVxy+s1w7w\-+hyEhh@=AYs`)p*_I`]#VBPB@g?O691
     P10OvCS KC2019 06 07]aq6a9Y=Zv^moxv?\5forCwsS;Pu5r;k!R-rCn21Fxo9GGif)%cx691
     P10OvCS ^C2019 06 07.57281220 52 28.249+02 11 37.73   ~67Kb 20.84GVNEOCP568
     P10OvCS ^C2019 06 07.57399120 52 28.239+02 11 38.02   ~67Kb 20.84GVNEOCP568
     P10OvCS ^C2019 06 07.57517120 52 28.228+02 11 38.34   ~67Kb 20.88GVNEOCP568
     P10OvCS HC2019 06 09cZmn/]f$NgW59T)%V:KTc!0.A:3+teHT2o(BxIS3c-qhc1nqO2L9691
     P10OvCS HC2019 06 09tH--S(L!6_T.Q`J*tglk//VW'_j-yU,L.4RdKk\Y\0``o4'aYkpj691
     P10OvCS HC2019 06 09HQOl_N1:[7#IiAexplanationN[#b59ruTAd[\CLS3u^=ACkR8io691
     P10OvCS KC2019 06 12*36Xnm@],mX`4vvqtH$-wb$?`pKRPoGZ(]9P*336EQ;BMfOj#M,\691
     P10OvCS KC2019 06 12FFRKx(@ycH6VR@i?Wpe.ea5QWdu4k[pk\H=Z+]ZH`p$lkm2Hcw0(691
     P10OvCS KC2019 06 128y3ocb)/DTV=:aUN/;yg-j[?lxpV[.Un#rWa'U;(5qyO3TXvoWdW691
     P10OvCS  C2019 06 15.42875 20 51 02.33 +02 43 39.8    ~6FB7       VNEOCPI52
     P10OvCS  C2019 06 15.44209 20 51 02.08 +02 43 43.8    ~6FB7       VNEOCPI52

Station data:
(033) Karl Schwarzschild Observatory, Tautenburg  (N50.980140 E11.711240)
   Germany. 1.3-m Schmidt.
(568) Mauna Kea  (N19.826116 W155.472200)  US/Hawaii.
(691) Steward Observatory, Kitt Peak - Spacewatch  (N31.962174 W111.600327)
   US/Arizona.  Observer J. V. Scotti. 0.9-m f/3 reflector + CCD.
(711) McDonald Observatory, Fort Davis  (N30.671481 W104.021500)  US/Texas.
   0.76-m f/3.0 reflector.
(F51) Pan-STARRS 1, Haleakala  (N20.707235 W156.255910)  US/Hawaii.
   Observers N. Primak, A. Schultz, S. Watters, J. Thiel, T. Goggia. Measurer
   PS1 Science Consortium. 1.8-m Ritchey-Chrétien + CCD.
(F52) Pan-STARRS 2, Haleakala  (N20.707384 W156.255910)  US/Hawaii. 1.8-m
   Ritchey-Chrétien + CCD.
(H21) Astronomical Research Observatory, Westfield  (N39.483057 W87.968270)
   US/Illinois. 0.76-m f/3.0 astrograph + CCD.
(I52) Steward Observatory, Mt. Lemmon Station  (N32.442547 W110.788920)
   US/Arizona.  Observers T. A. Pruyne, B. M. Africano, E. J. Christensen, G.
   A. Farneth, D. C. Fuls, A. R. Gibbs, A. D. Grauer, H. Groeller, J. A.
   Johnson, R. A. Kowalski, S. M. Larson, G. J. Leonard, R. L. Seaman, F. C.
   Shelly. 1.0-m reflector + CCD.
(L01) Višnjan Observatory, Tičan  (N45.290900 E13.749300)  Croatia.
   Observers K. Korlević, E. Pettarin. Measurer E. Pettarin. 1.0-m f/2.9
   reflector + CCD.

Orbital elements:  P10OvCS
   Perihelion 2021 Sep 24.129066 +/- 58.7 TT =  3:05:51 (JD 2459481.629066)
Epoch 2019 Jun 15.0 TT = JDT 2458649.5   Ju: 0.0585           AutoNEOCP
M 289.59082985 +/- 5.2              (J2000 ecliptic)
n   0.08461328 +/- 0.000387         Peri.  126.22111 +/- 6
a   5.13858675 +/- 0.0156           Node   256.93743 +/- 0.09
e   0.0379686 +/- 0.00972           Incl.   21.86564 +/- 0.027
P  11.65                   H 13.9   G  0.15   U  7.6  
q 4.94348150 +/- 0.0627    Q 5.33369201 +/- 0.0374
From 36 observations 2019 June 1-15; mean residual 0".30
Residuals in arcseconds: 
190601 F51  .07-  .02+    190603 F52  .10+  .07-    190607 691  .07-  .29+    
190601 F51  .05-  .12-    190603 F52  .07-  .26-    190607 568  .01-  .24-    
190601 F51  .00   .08-    190604 711  .04-  .02+    190607 568  .00   .26-    
190601 F51  .07-  .06-    190604 711  .64+  .03-    190607 568  .01-  .24-    
190603 033  .29+  .22-    190604 711  .18-  .10-    190609 691  .02-  .19-    
190603 033  .48-  .29+    190606 L01  .14+  1.4+    190609 691  .10+  .13-    
190603 033  .36-  .29+    190606 L01  .60+  .80-    190609 691  .23-  .15-    
190603 H21  .04-  .48+    190606 711  .03+  .32-    190612 691  .05+  .16+    
190603 H21  .33+  .13+    190606 711  .07-  .16-    190612 691  .41-  .14+    
190603 H21  .19-  .02+    190606 711  .14+  .09-    190612 691  .25-  .33+    
190603 F52  .11+  .09-    190607 691  .18-  .19+    190615 I52  .59+  .56-    
190603 F52  .11-  .28-    190607 691  .12-  .09+    190615 I52  .28-  .40+    

Ephemerides (geocentric):
Date (UTC) HH   RA              Dec         delta   r     elong  mag " sig PA
---- -- -- --  -------------   -----------  ------ ------ -----  --- ---- ---
2019 06 15 19  20 50 57.264   +02 45 03.88  4.4215 5.0797 125.5 21.3 .214  66
2019 06 15 20  20 50 56.683   +02 45 13.32  4.4210 5.0796 125.6 21.3 .218  66
2019 06 15 21  20 50 56.100   +02 45 22.75  4.4205 5.0796 125.6 21.3 .221  66
2019 06 15 22  20 50 55.516   +02 45 32.17  4.4200 5.0796 125.7 21.3 .224  66
2019 06 15 23  20 50 54.931   +02 45 41.59  4.4195 5.0796 125.7 21.3 .228  66
2019 06 16 00  20 50 54.345   +02 45 51.00  4.4191 5.0796 125.7 21.3 .231  66
2019 06 16 01  20 50 53.757   +02 46 00.40  4.4186 5.0796 125.8 21.3 .235  66
2019 06 16 02  20 50 53.169   +02 46 09.79  4.4181 5.0796 125.8 21.3 .238  66
2019 06 16 03  20 50 52.579   +02 46 19.18  4.4176 5.0796 125.8 21.3 .242  66
2019 06 16 04  20 50 51.988   +02 46 28.56  4.4171 5.0795 125.9 21.3 .245  66
2019 06 16 05  20 50 51.395   +02 46 37.93  4.4167 5.0795 125.9 21.3 .249  66
2019 06 16 06  20 50 50.802   +02 46 47.29  4.4162 5.0795 125.9 21.3 .252  66
2019 06 16 07  20 50 50.207   +02 46 56.65  4.4157 5.0795 126.0 21.3 .256  66
2019 06 16 08  20 50 49.611   +02 47 05.99  4.4152 5.0795 126.0 21.3 .259  66
2019 06 16 09  20 50 49.014   +02 47 15.33  4.4147 5.0795 126.1 21.3 .263  66
2019 06 16 10  20 50 48.416   +02 47 24.66  4.4142 5.0795 126.1 21.3 .266  66
2019 06 16 11  20 50 47.817   +02 47 33.99  4.4138 5.0795 126.1 21.3 .270  66
2019 06 16 12  20 50 47.216   +02 47 43.30  4.4133 5.0795 126.2 21.3 .274  66
2019 06 16 13  20 50 46.615   +02 47 52.61  4.4128 5.0794 126.2 21.3 .277  66
2019 06 16 14  20 50 46.012   +02 48 01.91  4.4123 5.0794 126.2 21.3 .281  66
2019 06 16 15  20 50 45.408   +02 48 11.20  4.4119 5.0794 126.3 21.3 .285  66
2019 06 16 16  20 50 44.802   +02 48 20.49  4.4114 5.0794 126.3 21.3 .288  66
2019 06 16 17  20 50 44.196   +02 48 29.77  4.4109 5.0794 126.4 21.3 .292  66
2019 06 16 18  20 50 43.588   +02 48 39.03  4.4104 5.0794 126.4 21.3 .296  66
2019 06 16 19  20 50 42.979   +02 48 48.30  4.4099 5.0794 126.4 21.3 .299  66
2019 06 16 20  20 50 42.369   +02 48 57.55  4.4095 5.0794 126.5 21.3 .303  66
2019 06 16 21  20 50 41.758   +02 49 06.80  4.4090 5.0794 126.5 21.3 .307  66
2019 06 16 22  20 50 41.146   +02 49 16.03  4.4085 5.0793 126.5 21.3 .311  66
2019 06 16 23  20 50 40.532   +02 49 25.26  4.4080 5.0793 126.6 21.3 .315  66
2019 06 17 00  20 50 39.918   +02 49 34.49  4.4076 5.0793 126.6 21.3 .319  66
2019 06 17 01  20 50 39.302   +02 49 43.70  4.4071 5.0793 126.7 21.3 .322  66
2019 06 17 02  20 50 38.685   +02 49 52.91  4.4066 5.0793 126.7 21.3 .326  66
2019 06 17 03  20 50 38.066   +02 50 02.11  4.4061 5.0793 126.7 21.3 .330  66
2019 06 17 04  20 50 37.447   +02 50 11.30  4.4057 5.0793 126.8 21.3 .334  67
2019 06 17 05  20 50 36.826   +02 50 20.48  4.4052 5.0793 126.8 21.3 .338  67
2019 06 17 06  20 50 36.205   +02 50 29.66  4.4047 5.0792 126.8 21.3 .342  67
2019 06 17 07  20 50 35.582   +02 50 38.82  4.4042 5.0792 126.9 21.3 .346  67
2019 06 17 08  20 50 34.958   +02 50 47.98  4.4038 5.0792 126.9 21.3 .350  67
2019 06 17 09  20 50 34.332   +02 50 57.14  4.4033 5.0792 126.9 21.3 .354  67
2019 06 17 10  20 50 33.706   +02 51 06.28  4.4028 5.0792 127.0 21.3 .358  67
2019 06 17 11  20 50 33.078   +02 51 15.41  4.4023 5.0792 127.0 21.3 .362  67
2019 06 17 12  20 50 32.449   +02 51 24.54  4.4019 5.0792 127.1 21.3 .366  67
2019 06 17 13  20 50 31.819   +02 51 33.66  4.4014 5.0792 127.1 21.3 .370  67
2019 06 17 14  20 50 31.188   +02 51 42.78  4.4009 5.0792 127.1 21.3 .374  67
2019 06 17 15  20 50 30.556   +02 51 51.88  4.4004 5.0791 127.2 21.3 .379  67
2019 06 17 16  20 50 29.922   +02 52 00.98  4.4000 5.0791 127.2 21.3 .383  67
2019 06 17 17  20 50 29.288   +02 52 10.06  4.3995 5.0791 127.2 21.3 .387  67
2019 06 17 18  20 50 28.652   +02 52 19.15  4.3990 5.0791 127.3 21.3 .391  67